VA3DLF Weather Reports


time (UTC)temp
C
wind
direction
speed
KPH
gust
KPH
rain 1hr
cm
rain 24hr
cm
rain mn
cm
humidity
%
barometer
mb
20200122022013 -5 23 9.7 11.3 0.00 0.00 0.00
20200122021012 -6 354 9.7 9.7 0.00 0.00 0.00
20200122020512 -6 359 8.0 9.7 0.00 0.00 0.00
20200122015510 -6 13 9.7 0.0 0.00 0.00 0.00
20200122014005 -6 359 0.0 0.0 0.00 0.00 0.00
20200122013506 -6 359 0.0 0.0 0.00 0.00 0.00
20200122013007 -6 359 0.0 0.0 0.00 0.00 0.00
20200122012504 -6 359 9.7 0.0 0.00 0.00 0.00
20200122011505 -6 350 8.0 9.7 0.00 0.00 0.00
20200122011001 -6 7 9.7 8.0 0.00 0.00 0.00
20200122010502 -6 1 9.7 14.5 0.00 0.00 0.00
20200122010002 -6 359 3.2 0.0 0.00 0.00 0.00
20200122005500 -6 359 0.0 0.0 0.00 0.00 0.00
20200122004501 -6 359 0.0 0.0 0.00 0.00 0.00
20200122003958 -6 359 0.0 0.0 0.00 0.00 0.00
20200122001957 -6 15 9.7 9.7 0.00 0.00 0.00
20200122001458 -6 359 0.0 0.0 0.00 0.00 0.00
20200122000955 -6 359 0.0 0.0 0.00 0.00 0.00
20200122000456 -6 359 0.0 0.0 0.00 0.00 0.00
20200121235955 -6 359 0.0 0.0 0.00 0.00 0.00
20200121235454 -6 359 0.0 0.0 0.00 0.00 0.00
20200121234953 -6 359 0.0 0.0 0.00 0.00 0.00
20200121234453 -6 359 0.0 0.0 0.00 0.00 0.00
20200121233951 -6 359 0.0 0.0 0.00 0.00 0.00
20200121233454 -6 18 6.4 8.0 0.00 0.00 0.00
20200121232951 -6 13 6.4 8.0 0.00 0.00 0.00
20200121232449 -6 354 6.4 9.7 0.00 0.00 0.00
20200121231450 -6 347 6.4 9.7 0.00 0.00 0.00
20200121230948 -6 347 8.0 4.8 0.00 0.00 0.00
20200121225948 -6 332 8.0 6.4 0.00 0.00 0.00
20200121225446 -6 326 9.7 8.0 0.00 0.00 0.00
20200121224947 -6 332 6.4 6.4 0.00 0.00 0.00
20200121224447 -6 326 8.0 4.8 0.00 0.00 0.00
20200121223945 -6 339 6.4 4.8 0.00 0.00 0.00
20200121223445 -6 347 6.4 4.8 0.00 0.00 0.00
20200121222945 -5 329 6.4 6.4 0.00 0.00 0.00
20200121222443 -5 319 6.4 6.4 0.00 0.00 0.00
20200121221944 -5 345 6.4 8.0 0.00 0.00 0.00
20200121221444 -5 342 6.4 8.0 0.00 0.00 0.00
20200121220442 -5 311 8.0 9.7 0.00 0.00 0.00
20200121215943 -5 319 8.0 4.8 0.00 0.00 0.00
20200121213940 -5 335 8.0 8.0 0.00 0.00 0.00
20200121213440 -5 343 6.4 9.7 0.00 0.00 0.00
20200121212940 -5 21 4.8 4.8 0.00 0.00 0.00
20200121211939 -5 347 6.4 4.8 0.00 0.00 0.00
20200121205436 -6 330 6.4 3.2 0.00 0.00 0.00
20200121204935 -6 329 8.0 8.0 0.00 0.00 0.00
20200121203933 -6 298 8.0 8.0 0.00 0.00 0.00
20200121203433 -6 298 3.2 3.2 0.00 0.00 0.00
20200121202432 -6 312 6.4 6.4 0.00 0.00 0.00
20200121201932 -6 326 9.7 8.0 0.00 0.00 0.00
20200121201433 -6 343 6.4 8.0 0.00 0.00 0.00
20200121200929 -6 321 6.4 11.3 0.00 0.00 0.00
20200121200430 -6 316 6.4 8.0 0.00 0.00 0.00
20200121195930 -6 309 8.0 6.4 0.00 0.00 0.00
20200121194429 -6 318 9.7 9.7 0.00 0.00 0.00
20200121192928 -7 319 9.7 11.3 0.00 0.00 0.00
20200121192425 -7 350 8.0 3.2 0.00 0.00 0.00
20200121191422 -6 338 8.0 8.0 0.00 0.00 0.00
20200121190420 -7 350 4.8 12.9 0.00 0.00 0.00
20200121185921 -7 1 8.0 6.4 0.00 0.00 0.00
20200121185418 -7 329 8.0 6.4 0.00 0.00 0.00
20200121184918 -7 338 6.4 8.0 0.00 0.00 0.00
20200121183916 -7 14 8.0 6.4 0.00 0.00 0.00
20200121182415 -7 329 9.7 11.3 0.00 0.00 0.00
20200121181415 -7 330 9.7 8.0 0.00 0.00 0.00
20200121180913 -7 346 9.7 11.3 0.00 0.00 0.00
20200121180413 -7 6 12.9 8.0 0.00 0.00 0.00
20200121175913 -7 332 9.7 16.1 0.00 0.00 0.00
20200121175410 -7 4 14.5 11.3 0.00 0.00 0.00
20200121174910 -7 25 12.9 11.3 0.00 0.00 0.00
20200121174409 -7 3 9.7 9.7 0.00 0.00 0.00
20200121173906 -7 349 11.3 12.9 0.00 0.00 0.00
20200121173407 -8 352 9.7 6.4 0.00 0.00 0.00
20200121172907 -8 352 11.3 12.9 0.00 0.00 0.00
20200121172402 -8 359 9.7 6.4 0.00 0.00 0.00
20200121171401 -8 353 11.3 14.5 0.00 0.00 0.00
20200121165859 -8 340 11.3 9.7 0.00 0.00 0.00
20200121164857 -8 353 9.7 12.9 0.00 0.00 0.00
20200121164358 -8 8 9.7 9.7 0.00 0.00 0.00
20200121163853 -8 18 11.3 9.7 0.00 0.00 0.00
20200121163354 -8 13 6.4 6.4 0.00 0.00 0.00
20200121162850 -8 318 6.4 8.0 0.00 0.00 0.00
20200121161847 -8 8 8.0 8.0 0.00 0.00 0.00
20200121161348 -8 343 9.7 9.7 0.00 0.00 0.00
20200121160845 -8 18 11.3 9.7 0.00 0.00 0.00
20200121160346 -8 30 12.9 9.7 0.00 0.00 0.00
20200121155344 -7 4 9.7 6.4 0.00 0.00 0.00
20200121154844 -7 11 9.7 8.0 0.00 0.00 0.00
20200121154345 -7 18 6.4 9.7 0.00 0.00 0.00
20200121153843 -7 30 8.0 11.3 0.00 0.00 0.00
20200121152843 -7 345 3.2 4.8 0.00 0.00 0.00
20200121152340 -7 39 8.0 6.4 0.00 0.00 0.00
20200121151840 -8 15 4.8 4.8 0.00 0.00 0.00
20200121151341 -9 17 1.6 1.6 0.00 0.00 0.00
20200121150838 -10 21 1.6 0.0 0.00 0.00 0.00
20200121150339 -11 28 6.4 6.4 0.00 0.00 0.00
20200121145839 -10 45 4.8 6.4 0.00 0.00 0.00
20200121145336 -10 14 3.2 3.2 0.00 0.00 0.00
20200121144838 -11 13 4.8 6.4 0.00 0.00 0.00
20200121144338 -11 10 6.4 6.4 0.00 0.00 0.00
20200121143835 -12 44 6.4 8.0 0.00 0.00 0.00
20200121143334 -12 42 6.4 6.4 0.00 0.00 0.00
20200121142834 -13 17 6.4 8.0 0.00 0.00 0.00
20200121142331 -13 17 4.8 4.8 0.00 0.00 0.00
20200121141831 -13 42 3.2 3.2 0.00 0.00 0.00
20200121140829 -13 46 0.0 0.0 0.00 0.00 0.00
20200121140329 -13 37 1.6 4.8 0.00 0.00 0.00
20200121135830 -13 23 1.6 0.0 0.00 0.00 0.00
20200121135328 -13 35 6.4 6.4 0.00 0.00 0.00
20200121134828 -13 34 1.6 3.2 0.00 0.00 0.00
20200121134328 -13 15 0.0 0.0 0.00 0.00 0.00
20200121133825 -14 15 0.0 0.0 0.00 0.00 0.00
20200121133325 -14 98 0.0 0.0 0.00 0.00 0.00
20200121132826 -14 98 0.0 0.0 0.00 0.00 0.00
20200121132323 -15 98 0.0 0.0 0.00 0.00 0.00
20200121131823 -15 98 0.0 0.0 0.00 0.00 0.00
20200121131324 -15 98 0.0 0.0 0.00 0.00 0.00
20200121130821 -16 98 0.0 0.0 0.00 0.00 0.00
20200121130322 -16 98 0.0 0.0 0.00 0.00 0.00
20200121125821 -16 98 0.0 0.0 0.00 0.00 0.00
20200121125319 -16 98 0.0 0.0 0.00 0.00 0.00
20200121124819 -16 98 0.0 0.0 0.00 0.00 0.00
20200121124319 -16 98 0.0 0.0 0.00 0.00 0.00
20200121123817 -16 98 0.0 0.0 0.00 0.00 0.00
20200121123317 -16 62 1.6 0.0 0.00 0.00 0.00
20200121122818 -17 62 0.0 0.0 0.00 0.00 0.00
20200121122315 -16 62 0.0 0.0 0.00 0.00 0.00
20200121121815 -16 62 0.0 0.0 0.00 0.00 0.00
20200121120812 -16 62 0.0 0.0 0.00 0.00 0.00
20200121120312 -16 62 0.0 0.0 0.00 0.00 0.00
20200121115309 -17 56 1.6 1.6 0.00 0.00 0.00
20200121114809 -17 77 0.0 0.0 0.00 0.00 0.00
20200121114310 -17 65 1.6 1.6 0.00 0.00 0.00
20200121113806 -17 117 1.6 3.2 0.00 0.00 0.00
20200121112807 -18 70 1.6 0.0 0.00 0.00 0.00
20200121112307 -18 42 0.0 0.0 0.00 0.00 0.00
20200121111805 -18 42 0.0 0.0 0.00 0.00 0.00
20200121111304 -18 42 0.0 0.0 0.00 0.00 0.00
20200121110759 -18 42 0.0 0.0 0.00 0.00 0.00
20200121110300 -18 42 0.0 0.0 0.00 0.00 0.00
20200121105800 -18 42 0.0 0.0 0.00 0.00 0.00
20200121104758 -19 42 0.0 0.0 0.00 0.00 0.00
20200121104258 -18 42 0.0 0.0 0.00 0.00 0.00
20200121103755 -18 42 0.0 0.0 0.00 0.00 0.00
20200121103255 -18 42 0.0 0.0 0.00 0.00 0.00
20200121102755 -19 42 0.0 0.0 0.00 0.00 0.00
20200121102252 -18 42 0.0 0.0 0.00 0.00 0.00
20200121101752 -19 42 0.0 0.0 0.00 0.00 0.00
20200121101252 -19 42 0.0 0.0 0.00 0.00 0.00
20200121100250 -18 42 0.0 0.0 0.00 0.00 0.00
20200121095751 -18 66 0.0 0.0 0.00 0.00 0.00
20200121095246 -18 66 0.0 0.0 0.00 0.00 0.00
20200121094746 -19 103 0.0 0.0 0.00 0.00 0.00
20200121094246 -18 59 0.0 0.0 0.00 0.00 0.00
20200121093743 -18 59 0.0 0.0 0.00 0.00 0.00
20200121093242 -19 59 0.0 0.0 0.00 0.00 0.00
20200121092743 -18 59 0.0 0.0 0.00 0.00 0.00
20200121092239 -18 59 0.0 0.0 0.00 0.00 0.00
20200121091740 -18 59 0.0 0.0 0.00 0.00 0.00
20200121091241 -18 59 0.0 0.0 0.00 0.00 0.00
20200121090736 -18 59 0.0 0.0 0.00 0.00 0.00
20200121090237 -18 59 0.0 0.0 0.00 0.00 0.00
20200121085737 -18 59 0.0 0.0 0.00 0.00 0.00
20200121085236 -18 59 0.0 0.0 0.00 0.00 0.00
20200121084736 -18 59 0.0 0.0 0.00 0.00 0.00
20200121083734 -18 59 0.0 0.0 0.00 0.00 0.00
20200121083234 -18 66 0.0 0.0 0.00 0.00 0.00
20200121082734 -18 66 0.0 0.0 0.00 0.00 0.00
20200121082232 -18 38 0.0 0.0 0.00 0.00 0.00
20200121081732 -18 38 0.0 0.0 0.00 0.00 0.00
20200121081232 -18 38 0.0 0.0 0.00 0.00 0.00
20200121080230 -18 38 0.0 0.0 0.00 0.00 0.00
20200121075730 -17 38 0.0 0.0 0.00 0.00 0.00
20200121075224 -18 38 0.0 0.0 0.00 0.00 0.00
20200121074725 -17 38 0.0 0.0 0.00 0.00 0.00
20200121074225 -17 38 0.0 0.0 0.00 0.00 0.00
20200121073723 -18 89 1.6 0.0 0.00 0.00 0.00
20200121073223 -17 48 0.0 0.0 0.00 0.00 0.00
20200121072724 -17 48 0.0 0.0 0.00 0.00 0.00
20200121072220 -17 48 0.0 0.0 0.00 0.00 0.00
20200121071721 -17 48 0.0 0.0 0.00 0.00 0.00
20200121071221 -17 48 0.0 0.0 0.00 0.00 0.00
20200121070718 -17 48 0.0 0.0 0.00 0.00 0.00
20200121070219 -17 48 0.0 0.0 0.00 0.00 0.00
20200121065719 -17 48 0.0 0.0 0.00 0.00 0.00
20200121065216 -17 48 0.0 0.0 0.00 0.00 0.00
20200121064716 -17 48 0.0 0.0 0.00 0.00 0.00
20200121064217 -16 48 0.0 0.0 0.00 0.00 0.00
20200121063713 -17 48 0.0 0.0 0.00 0.00 0.00
20200121063214 -16 48 0.0 0.0 0.00 0.00 0.00
20200121062714 -17 77 0.0 3.2 0.00 0.00 0.00
20200121062211 -17 76 0.0 0.0 0.00 0.00 0.00
20200121060709 -16 76 0.0 0.0 0.00 0.00 0.00
20200121060209 -17 76 0.0 0.0 0.00 0.00 0.00
20200121055709 -16 76 0.0 0.0 0.00 0.00 0.00
20200121055206 -16 87 0.0 0.0 0.00 0.00 0.00
20200121054706 -16 97 1.6 3.2 0.00 0.00 0.00
20200121054207 -16 73 1.6 0.0 0.00 0.00 0.00
20200121053704 -16 66 1.6 1.6 0.00 0.00 0.00
20200121053205 -16 79 1.6 3.2 0.00 0.00 0.00
20200121052705 -16 59 1.6 0.0 0.00 0.00 0.00
20200121052203 -16 84 0.0 0.0 0.00 0.00 0.00
20200121051703 -16 84 0.0 0.0 0.00 0.00 0.00
20200121051204 -16 84 0.0 0.0 0.00 0.00 0.00
20200121050701 -16 84 0.0 0.0 0.00 0.00 0.00
20200121050202 -16 84 0.0 0.0 0.00 0.00 0.00
20200121045702 -15 84 0.0 0.0 0.00 0.00 0.00
20200121045159 -15 76 0.0 0.0 0.00 0.00 0.00
20200121044700 -15 62 0.0 0.0 0.00 0.00 0.00
20200121044200 -15 97 1.6 1.6 0.00 0.00 0.00
20200121043657 -15 96 0.0 0.0 0.00 0.00 0.00
20200121043157 -15 359 0.0 0.0 0.00 0.00 0.00
20200121042155 -14 359 0.0 0.0 0.00 0.00 0.00
20200121041656 -14 359 0.0 0.0 0.00 0.00 0.00
20200121040153 -13 359 0.0 0.0 0.00 0.00 0.00
20200121035653 -13 359 0.0 0.0 0.00 0.00 0.00
20200121035150 -13 359 0.0 0.0 0.00 0.00 0.00
20200121034651 -13 359 0.0 0.0 0.00 0.00 0.00
20200121033647 -13 359 0.0 0.0 0.00 0.00 0.00
20200121033148 -13 359 0.0 0.0 0.00 0.00 0.00
20200121032648 -13 359 0.0 0.0 0.00 0.00 0.00
20200121032145 -14 359 0.0 0.0 0.00 0.00 0.00
20200121031646 -13 359 0.0 0.0 0.00 0.00 0.00
20200121030144 -13 359 0.0 0.0 0.00 0.00 0.00
20200121025645 -13 359 0.0 0.0 0.00 0.00 0.00
20200121025140 -12 359 0.0 0.0 0.00 0.00 0.00
20200121024141 -12 359 0.0 0.0 0.00 0.00 0.00
20200121023639 -12 359 0.0 0.0 0.00 0.00 0.00